Temperature
16 16 16 16 16 16 16 16 16 16 16 15 15 15 16 15 15 16 15 15 15 15 15 15 15 15 15 15 15 15 15 15 15 15 15 15 15 15 15 15 15 15 15
16 16 16 16 16 15 15 15 15 15 15 15 15 15 15 15 15 15 15 15 15 15 15 15 15 15 15 14 14 14 14 14 15 15 15 15 15 15 15 15 15 15 15
16 16 16 16 15 15 15 15 15 15 15 15 15 15 15 15 15 15 15 15 15 15 15 15 15 15 15 14 14 14 14 14 14 14 14 15 15 14 14 14 14 15 15
16 16 16 15 15 15 15 15 15 15 15 15 15 15 15 15 15 15 15 15 15 15 15 14 14 14 14 14 14 14 14 14 14 14 14 14 14 14 14 14 14 14 14
16 16 15 15 15 15 15 15 15 15 15 15 15 15 14 14 14 14 14 14 14 14 14 14 14 14 14 14 14 14 14 14 14 14 14 14 14 14 14 14 14 14 14
16 15 15 15 15 15 15 15 15 15 15 15 14 14 14 14 14 14 14 14 14 14 14 14 14 14 14 14 14 14 14 14 14 14 14 14 14 14 14 14 14 14 14
15 15 15 15 15 15 15 15 15 15 14 14 14 14 14 14 14 14 14 14 14 14 14 14 14 14 14 14 14 14 13 13 13 13 13 13 14 13 13 13 13 13 13
15 15 15 15 15 15 15 15 15 14 14 14 14 14 14 13 13 13 13 13 14 14 14 14 14 14 14 14 14 14 13 13 13 13 13 13 13 13 13 13 13 13 13
15 15 15 15 15 15 15 15 15 15 14 14 14 14 14 14 13 13 13 13 13 13 13 13 13 13 13 13 13 13 13 13 13 13 13 13 13 13 13 13 13 13 13
15 15 15 15 15 15 15 15 14 14 14 14 14 14 14 14 14 13 13 13 13 13 13 13 13 13 13 13 13 13 13 13 13 13 13 13 13 13 13 13 13 13 13
15 15 15 15 15 15 15 15 15 14 14 14 14 14 14 14 14 14 13 13 13 13 13 13 13 13 13 13 13 13 13 13 13 13 13 13 13 13 13 13 13 12 12
15 15 15 15 15 15 15 14 14 14 14 14 14 14 14 14 14 14 13 13 13 13 13 13 13 13 13 13 13 13 13 13 13 13 13 13 12 12 12 12 12 12 12
15 15 15 15 15 15 15 15 14 14 14 14 14 14 14 14 14 14 14 13 13 12 12 13 13 13 13 13 13 13 13 13 13 13 13 13 12 12 12 12 12 12 12
15 15 15 15 15 15 15 15 14 14 14 14 14 14 14 14 14 14 14 14 13 13 12 13 13 13 13 13 13 13 13 13 13 13 12 12 12 12 12 12 12 12 12
15 15 15 15 15 15 15 14 14 14 14 14 14 14 14 14 14 14 14 14 14 13 13 13 12 12 12 12 12 12 12 12 12 12 12 12 12 12 12 12 12 12 12
15 15 15 15 15 14 14 14 14 14 14 14 14 14 14 14 14 14 14 14 13 13 13 13 12 12 12 12 12 12 12 12 12 12 12 12 12 12 12 12 12 12 11
15 15 15 15 15 15 14 14 14 14 14 14 14 14 14 14 14 14 13 13 13 13 13 13 12 12 12 12 12 12 12 12 12 12 12 12 12 11 12 12 11 11 11
15 15 15 15 15 15 15 14 14 14 14 14 14 14 14 14 14 14 13 13 13 13 13 13 12 12 12 12 12 12 12 11 11 11 11 11 11 11 11 11 11 11 11
15 15 15 15 15 15 15 14 14 14 14 14 14 14 14 14 14 14 14 13 13 13 13 13 12 12 12 12 12 12 11 11 11 11 11 11 11 11 11 11 11 11 11
15 15 15 15 15 15 15 15 15 14 14 14 14 14 14 14 14 14 13 13 13 13 13 13 12 12 12 12 11 11 11 11 11 11 11 11 11 11 11 10 10 10 10
15 15 15 15 15 15 15 14 14 14 14 14 14 14 14 14 13 13 13 13 13 13 13 12 12 12 12 12 12 11 11 11 11 11 11 11 10 10 10 10 10 10 10
15 15 15 15 15 14 14 14 14 14 14 14 14 14 14 14 13 13 13 13 13 13 13 12 12 12 12 12 12 11 11 11 11 11 11 11 10 10 10 10 10 10 10
14 14 14 14 14 14 14 14 14 14 14 14 14 14 14 13 13 13 13 13 13 12 12 12 12 12 12 12 11 11 11 11 11 11 11 11 10 10 10 10 10 10 9
14 14 14 14 14 14 14 14 14 14 14 13 13 13 13 13 13 13 13 13 13 12 12 12 12 12 12 11 11 11 11 11 11 10 10 10 10 10 10 10 9 9 9
14 14 14 14 14 14 13 13 13 13 13 13 13 13 13 13 13 13 13 13 12 12 12 12 12 11 11 11 11 11 11 11 11 10 10 10 10 10 10 10 9 9 9
14 14 13 13 13 13 13 13 13 13 13 13 13 13 13 12 12 12 12 12 12 12 12 12 11 11 11 11 11 11 11 10 10 10 10 10 9 9 9 9 9 9 9
Wind_Speed
2 2 2 3 3 3 3 3 4 5 6 6 6 7 6 7 7 6 6 8 9 9 8 8 7 7 7 7 7 7 7 6 6 7 8 8 8 8 8 9 8 6 6
4 3 3 3 3 3 4 5 5 5 4 5 5 5 6 6 7 6 6 7 8 9 9 8 8 7 7 7 7 7 7 7 7 7 8 8 8 8 8 9 9 8 7
6 5 3 3 3 4 5 6 6 5 4 4 5 5 5 6 6 6 6 6 7 8 8 8 9 9 8 8 8 8 8 8 7 7 8 8 8 7 7 8 8 8 7
7 5 4 3 3 5 5 4 3 4 4 4 4 4 4 4 5 6 6 7 6 6 7 8 9 9 8 8 8 8 7 7 7 8 7 7 7 7 7 7 8 8 8
7 5 3 3 4 4 3 3 3 3 4 4 4 4 4 3 4 5 5 6 6 6 6 7 9 9 8 7 7 7 7 7 7 7 7 8 8 7 7 7 7 7 8
6 6 4 3 5 4 3 3 4 3 3 3 5 5 4 4 4 4 4 5 5 5 6 7 7 8 9 8 8 8 7 7 7 8 8 8 8 8 7 7 7 7 8
6 5 4 3 4 3 3 4 3 4 3 3 4 4 4 4 4 3 4 4 4 5 6 7 7 7 7 9 9 9 9 8 8 8 8 8 9 8 8 7 7 7 8
5 5 4 3 3 3 3 3 3 2 1 2 3 3 2 4 4 4 3 3 3 5 5 6 6 7 7 7 8 10 10 9 9 9 9 9 9 9 9 9 8 8 8
3 4 4 3 3 3 3 2 3 3 2 0 1 3 3 1 1 3 3 3 3 3 3 4 6 6 6 7 7 8 9 10 9 10 10 9 9 10 11 11 9 9 9
3 4 4 4 3 2 3 3 3 2 3 1 0 1 2 4 3 1 3 3 3 3 2 3 4 5 5 6 7 8 9 9 9 9 10 10 11 11 11 12 10 9 10
2 3 4 4 3 2 2 2 2 2 2 2 1 1 2 2 2 3 1 2 3 2 2 2 3 4 4 4 5 6 8 8 9 9 10 11 11 11 11 12 12 11 11
0 1 3 3 2 2 2 2 2 2 2 2 2 2 2 2 2 2 2 1 0 2 2 2 1 2 3 3 4 5 6 7 8 9 10 10 11 11 12 11 11 12 11
1 1 1 2 2 2 2 2 1 1 2 2 2 2 2 2 3 3 4 2 1 1 2 2 1 1 2 2 3 4 6 6 7 8 9 10 10 11 11 11 11 11 11
3 2 2 2 2 2 2 1 1 1 1 2 2 2 2 2 3 4 4 4 2 1 1 2 2 1 1 2 2 4 5 6 6 7 8 9 9 9 10 10 10 11 11
3 3 3 2 2 2 2 2 1 0 1 1 1 2 2 2 2 2 3 4 4 2 1 2 1 1 1 2 2 3 4 4 5 6 6 7 7 7 8 8 9 9 9
3 3 2 2 2 2 2 2 1 0 1 1 1 2 1 1 2 2 3 2 3 4 2 2 2 2 1 2 3 4 3 3 3 3 4 4 5 5 6 6 7 8 8
3 3 3 3 3 2 2 2 1 1 1 0 0 2 2 2 2 2 2 2 2 3 3 1 1 0 1 1 1 2 1 1 1 1 2 3 3 4 4 5 5 6 6
3 3 3 3 3 2 3 3 3 2 2 2 1 1 1 2 2 2 3 3 3 3 4 3 0 0 1 1 1 1 1 1 1 0 1 1 2 2 3 3 3 4 4
2 2 3 3 3 3 3 3 3 2 2 2 3 3 2 3 2 2 3 3 3 3 3 3 1 0 1 0 1 1 1 1 0 1 1 0 0 1 1 1 2 2 3
3 3 3 3 3 3 3 3 3 3 2 1 2 2 3 4 4 4 3 3 3 4 3 3 2 0 0 1 1 0 1 1 1 1 1 0 0 1 1 1 1 1 2
2 2 2 2 2 2 3 3 3 3 3 1 0 1 3 4 6 5 5 5 5 4 3 3 2 1 0 0 1 1 1 1 1 1 1 1 1 2 3 2 2 1 1
1 1 1 2 2 2 3 5 4 3 3 2 1 1 1 3 4 6 7 8 8 6 5 4 3 2 3 3 1 1 2 0 2 2 1 1 1 1 3 2 3 2 2
1 1 1 2 2 2 4 5 6 4 3 2 2 2 1 1 3 3 4 5 5 7 8 7 5 5 4 5 4 2 2 3 3 2 2 1 1 2 3 3 3 2 2
2 2 2 2 2 2 4 5 5 4 3 2 3 3 3 3 3 4 4 3 2 2 5 5 6 6 5 5 5 5 4 2 1 1 2 1 1 2 2 3 3 2 2
2 2 2 3 3 3 4 4 5 3 2 2 2 3 4 4 5 6 5 4 2 2 2 5 5 4 4 5 6 4 2 2 1 2 1 2 1 1 1 2 4 3 3
3 2 2 2 3 3 3 4 5 3 2 2 1 2 4 5 6 7 5 5 4 3 2 2 1 1 1 2 5 4 4 3 2 2 2 3 1 1 1 2 2 3 3
Wind_Direction
110 93 79 78 74 82 90 85 82 83 79 82 85 88 88 88 85 78 68 71 72 71 75 76 76 73 73 73 73 67 64 61 57 59 55 50 45 40 38 34 34 44 46
110 101 91 82 84 88 93 94 93 90 83 82 74 79 85 90 89 83 71 61 63 66 64 67 71 75 76 74 71 67 64 63 62 60 57 50 45 41 40 38 41 46 44
112 111 98 80 86 92 88 85 83 86 84 77 69 70 76 80 87 82 74 64 60 61 60 63 68 69 74 74 74 71 68 66 61 59 56 51 46 41 40 41 39 39 40
114 107 98 88 95 98 94 89 85 85 77 73 68 64 65 70 76 82 79 71 64 56 57 63 66 64 66 71 74 71 68 64 61 57 55 49 46 44 42 43 42 39 38
108 106 102 105 102 97 92 101 90 97 90 78 74 64 55 55 56 76 79 75 69 61 56 55 57 55 56 63 69 68 66 63 56 53 53 50 48 46 45 44 45 40 40
111 109 104 101 99 90 83 91 97 83 92 91 82 64 47 44 48 55 69 70 65 65 62 56 48 44 45 52 59 60 59 58 54 51 51 49 47 47 46 46 48 45 46
117 115 111 100 98 99 108 110 107 96 86 99 86 55 35 34 42 37 49 59 56 59 63 58 53 49 44 46 48 50 49 52 52 51 50 47 45 45 46 48 51 50 53
126 124 124 120 114 108 100 104 111 108 111 120 112 95 44 15 17 25 30 53 50 54 56 60 59 55 51 46 44 48 48 50 52 53 51 47 46 47 47 44 47 52 53
134 130 131 125 124 123 132 138 137 138 150 200 135 137 136 176 350 2 17 29 34 51 50 60 61 55 54 50 47 46 47 46 49 51 51 50 51 50 48 46 49 55 57
141 138 136 140 139 134 144 161 146 149 144 146 35 93 147 151 144 68 357 7 21 36 35 59 62 60 59 55 53 50 49 48 49 51 52 52 54 52 49 46 52 62 62
155 144 140 139 144 157 167 158 141 146 148 151 158 122 93 87 106 137 153 342 2 357 8 46 69 65 59 60 60 57 55 54 51 51 52 51 51 51 51 52 55 62 62
100 146 143 145 160 170 181 176 163 163 169 161 161 153 153 150 157 142 153 170 325 327 358 14 58 76 68 62 63 64 63 65 61 57 54 50 48 49 52 54 55 56 55
196 213 159 157 167 189 187 171 160 183 176 166 175 171 168 171 155 142 137 150 154 309 349 353 341 75 77 73 70 73 73 73 71 66 60 55 52 50 50 50 50 50 49
203 197 183 176 177 172 163 145 118 202 156 160 170 163 151 166 154 152 153 145 121 6 354 308 337 348 97 113 100 95 80 80 80 76 70 64 58 54 51 50 48 48 47
196 183 177 160 164 158 154 135 124 162 135 150 187 172 166 172 161 154 148 150 146 155 265 278 295 303 191 148 136 115 96 89 87 82 76 70 62 56 52 51 49 46 45
183 161 158 159 156 153 152 137 134 132 122 160 180 154 162 172 151 146 149 144 141 150 182 248 248 261 174 144 154 138 123 102 102 94 86 76 64 58 55 53 50 45 42
172 168 169 167 166 166 156 144 165 146 139 140 159 151 165 156 145 146 138 131 137 137 145 252 288 277 137 151 137 153 140 124 110 113 100 81 68 60 58 53 48 43 40
183 179 169 166 171 167 161 163 180 172 175 190 209 163 175 157 147 149 142 146 150 149 146 164 209 34 200 205 186 183 190 196 202 177 132 93 73 62 61 56 50 44 41
179 171 160 172 185 182 177 186 178 173 187 206 204 190 196 160 157 150 146 151 147 136 129 142 159 68 356 351 71 23 22 346 274 262 212 210 53 49 47 45 42 38 40
165 179 177 184 191 184 182 186 173 169 176 201 203 200 193 175 177 169 159 160 141 123 117 119 124 101 334 332 84 101 346 337 323 12 54 83 338 325 326 346 20 30 28
175 174 158 167 167 173 184 173 166 167 166 163 186 214 203 188 184 179 172 169 154 142 136 132 142 122 267 357 235 214 210 293 330 356 21 9 348 334 318 304 308 322 331
148 124 147 167 174 191 178 171 162 156 154 156 173 244 221 190 184 182 178 173 168 164 169 166 173 183 222 221 214 185 184 137 304 308 137 302 35 308 308 308 314 308 301
168 141 158 156 174 198 181 169 166 155 159 179 189 192 183 157 146 145 150 154 169 176 173 172 177 201 207 209 185 189 194 185 216 249 130 286 312 293 305 317 328 325 322
177 171 174 178 175 206 185 172 168 158 161 195 206 200 190 190 175 153 142 139 167 200 190 181 191 204 204 197 185 187 189 184 257 309 132 207 286 278 317 319 320 312 318
185 201 186 179 183 211 196 177 157 149 166 215 223 206 194 193 187 161 149 159 182 237 195 187 191 196 203 194 168 138 144 143 244 281 197 176 248 276 313 315 324 323 317
193 194 199 205 193 206 206 189 168 158 179 222 226 218 206 199 192 177 171 173 194 226 195 158 164 198 171 165 168 169 182 178 190 250 233 176 212 172 304 300 323 323 315
Height
1540 1540 1540 1540 1540 1540 1540 1541 1540 1540 1541 1541 1541 1541 1540 1540 1540 1540 1540 1540 1539 1539 1538 1537 1536 1535 1535 1534 1533 1533 1532 1531 1530 1529 1528 1527 1526 1524 1522 1518 1515 1514 1516
1542 1541 1541 1541 1541 1541 1541 1541 1541 1541 1542 1542 1542 1542 1541 1541 1541 1541 1541 1540 1540 1539 1539 1538 1537 1536 1535 1534 1534 1533 1532 1531 1531 1530 1528 1527 1526 1524 1522 1519 1517 1516 1517
1543 1543 1542 1542 1542 1542 1542 1542 1543 1543 1543 1542 1542 1542 1542 1542 1542 1542 1541 1541 1541 1540 1539 1538 1537 1537 1536 1535 1534 1533 1533 1532 1531 1530 1529 1527 1526 1524 1523 1521 1519 1519 1518
1544 1544 1543 1543 1543 1543 1543 1543 1543 1543 1543 1543 1543 1543 1543 1543 1543 1542 1542 1542 1541 1541 1540 1539 1538 1537 1537 1536 1535 1534 1533 1533 1532 1530 1529 1528 1526 1525 1523 1522 1520 1519 1518
1545 1545 1544 1544 1544 1544 1544 1544 1544 1544 1544 1544 1544 1544 1544 1544 1544 1543 1543 1542 1542 1541 1541 1540 1540 1538 1537 1536 1535 1535 1534 1533 1532 1531 1530 1528 1526 1525 1523 1522 1521 1520 1519
1546 1545 1545 1545 1545 1545 1545 1545 1545 1545 1545 1545 1544 1544 1545 1545 1545 1544 1544 1543 1543 1542 1542 1541 1540 1539 1538 1537 1536 1536 1535 1534 1533 1532 1530 1528 1527 1525 1523 1522 1521 1520 1519
1546 1546 1545 1545 1546 1546 1545 1545 1545 1545 1545 1545 1545 1545 1546 1546 1545 1545 1545 1544 1544 1543 1543 1542 1541 1540 1539 1538 1537 1537 1536 1535 1534 1532 1531 1529 1527 1525 1524 1522 1521 1520 1519
1547 1547 1546 1546 1546 1546 1546 1546 1546 1546 1546 1546 1546 1546 1546 1548 1546 1546 1546 1545 1545 1544 1543 1543 1542 1541 1540 1539 1538 1538 1537 1536 1535 1533 1531 1530 1528 1526 1524 1522 1520 1519 1519
1547 1547 1547 1547 1546 1546 1546 1546 1546 1546 1546 1546 1547 1547 1547 1547 1547 1547 1547 1546 1546 1545 1544 1544 1543 1542 1541 1540 1539 1538 1538 1536 1535 1534 1532 1530 1528 1526 1524 1521 1518 1517 1518
1548 1547 1547 1547 1547 1547 1546 1546 1546 1546 1546 1546 1547 1547 1547 1547 1547 1547 1548 1547 1546 1546 1545 1544 1544 1543 1542 1541 1540 1539 1538 1537 1536 1534 1533 1531 1529 1527 1525 1521 1517 1516 1517
1548 1547 1547 1547 1547 1547 1547 1547 1546 1546 1546 1546 1546 1546 1546 1547 1546 1547 1547 1547 1547 1546 1545 1545 1544 1544 1543 1542 1541 1540 1539 1538 1536 1535 1533 1532 1530 1528 1526 1523 1520 1518 1519
1548 1547 1547 1547 1547 1547 1547 1547 1546 1546 1546 1546 1546 1546 1546 1546 1546 1546 1546 1546 1546 1546 1546 1545 1545 1544 1543 1543 1542 1541 1540 1538 1537 1536 1534 1533 1531 1530 1528 1526 1524 1523 1522
1547 1547 1547 1547 1547 1547 1547 1546 1546 1546 1546 1546 1546 1546 1546 1546 1546 1546 1546 1546 1546 1546 1546 1546 1545 1545 1544 1543 1542 1541 1540 1539 1538 1537 1536 1534 1533 1531 1530 1528 1527 1525 1524
1547 1547 1547 1547 1547 1547 1546 1546 1546 1546 1546 1545 1545 1545 1545 1545 1546 1546 1546 1545 1545 1545 1545 1546 1545 1545 1544 1543 1543 1542 1541 1540 1539 1538 1536 1535 1534 1533 1531 1529 1528 1526 1525
1547 1547 1547 1546 1546 1546 1546 1546 1545 1545 1545 1545 1545 1545 1545 1545 1545 1545 1545 1545 1545 1545 1545 1545 1545 1545 1544 1544 1543 1542 1541 1540 1539 1538 1537 1536 1535 1533 1532 1530 1529 1527 1526
1546 1546 1546 1546 1546 1546 1546 1545 1545 1545 1544 1544 1544 1544 1544 1544 1544 1544 1545 1545 1545 1545 1544 1544 1545 1545 1544 1544 1543 1543 1542 1541 1540 1539 1538 1536 1535 1534 1532 1531 1529 1528 1527
1545 1545 1545 1545 1545 1545 1545 1544 1544 1544 1544 1544 1544 1543 1543 1543 1544 1544 1544 1544 1544 1544 1544 1544 1544 1544 1544 1544 1543 1543 1542 1541 1540 1539 1538 1537 1536 1534 1533 1531 1530 1528 1527
1544 1544 1544 1544 1544 1544 1544 1544 1543 1543 1543 1543 1543 1543 1543 1543 1543 1543 1543 1543 1543 1543 1543 1543 1543 1543 1543 1543 1543 1542 1542 1541 1540 1539 1538 1537 1536 1535 1533 1532 1531 1529 1527
1543 1543 1543 1543 1543 1543 1543 1543 1542 1542 1542 1542 1542 1542 1542 1542 1542 1542 1542 1542 1542 1542 1543 1542 1542 1542 1542 1542 1542 1542 1541 1540 1540 1539 1538 1537 1536 1535 1533 1532 1531 1529 1528
1541 1541 1541 1541 1541 1541 1541 1541 1541 1541 1541 1541 1541 1541 1541 1541 1541 1541 1541 1541 1541 1541 1541 1541 1541 1541 1541 1541 1541 1541 1540 1540 1539 1539 1538 1537 1536 1535 1533 1532 1531 1529 1528
1539 1539 1539 1539 1539 1539 1539 1539 1539 1539 1539 1539 1539 1539 1539 1539 1539 1539 1540 1540 1540 1540 1540 1540 1540 1540 1540 1540 1540 1539 1539 1539 1538 1538 1537 1536 1535 1534 1533 1532 1530 1529 1527
1537 1537 1537 1537 1537 1537 1537 1537 1537 1537 1537 1537 1537 1537 1537 1537 1537 1537 1538 1538 1539 1539 1539 1539 1539 1539 1539 1539 1538 1538 1538 1537 1536 1537 1536 1535 1534 1533 1532 1531 1529 1528 1526
1534 1534 1534 1534 1534 1534 1534 1535 1535 1535 1534 1534 1534 1534 1534 1534 1535 1535 1535 1536 1536 1536 1537 1537 1537 1537 1537 1537 1537 1536 1536 1535 1535 1535 1534 1533 1533 1531 1531 1529 1528 1527 1525
1531 1531 1531 1531 1531 1531 1532 1532 1532 1532 1532 1532 1532 1532 1532 1532 1532 1532 1533 1533 1533 1534 1534 1534 1534 1535 1535 1535 1535 1535 1534 1533 1533 1533 1532 1531 1530 1530 1529 1528 1526 1525 1524
1528 1528 1528 1528 1528 1528 1529 1529 1529 1529 1529 1529 1529 1529 1529 1529 1530 1530 1530 1530 1530 1531 1531 1532 1532 1532 1532 1533 1533 1532 1532 1531 1530 1530 1530 1529 1528 1527 1526 1525 1524 1523 1522
1524 1525 1524 1525 1525 1525 1525 1526 1526 1526 1525 1525 1526 1526 1526 1526 1527 1527 1527 1527 1527 1528 1528 1529 1529 1529 1529 1529 1529 1529 1529 1528 1527 1527 1527 1526 1525 1525 1523 1522 1522 1521 1519